WA6MEM Weather Reports


time (UTC)temp
C
wind
direction
speed
KPH
gust
KPH
rain 1hr
cm
rain 24hr
cm
rain mn
cm
humidity
%
barometer
mb
20260906133524 17 5 9.7 0.0 0.00 0.00 0.05 87 1011.0
20260906133025 17 30 9.7 0.0 0.00 0.00 0.05 86 1011.0
20260906132521 18 11 8.0 0.0 0.00 0.00 0.05 83 1011.5
20260906132019 18 355 3.2 0.0 0.00 0.00 0.03 75 1011.5
20260906131518 18 5 0.0 0.0 0.00 0.00 0.03 71 1011.5
20260906131017 18 32 0.0 0.0 0.00 0.00 0.03 71 1011.3
20260906130517 18 29 0.0 0.0 0.00 0.00 0.03 71 1011.3
20260906130026 18 9 0.0 0.0 0.00 0.00 0.03 72 1011.3
20260906125515 18 14 0.0 0.0 0.00 0.00 0.03 71 1011.1
20260906125019 18 26 0.0 0.0 0.00 0.00 0.03 68 1011.1
20260906124512 18 338 0.0 0.0 0.00 0.00 0.03 64 1011.1
20260906124011 19 17 0.0 0.0 0.00 0.00 0.03 64 1011.0
20260906123509 20 26 0.0 0.0 0.00 0.00 0.03 60 1011.0
20260906123016 20 312 0.0 0.0 0.00 0.00 0.00 57 1011.0
20260906122512 20 277 0.0 0.0 0.00 0.00 0.00 53 1011.0
20260906122008 20 306 0.0 0.0 0.00 0.00 0.00 57 1011.0
20260906121507 20 138 0.0 0.0 0.00 0.00 0.00 60 1011.0
20260906121007 20 138 0.0 0.0 0.00 0.00 0.00 51 1010.6
20260906120506 20 138 0.0 0.0 0.00 0.00 0.00 55 1010.6
20260906120005 21 127 0.0 0.0 0.00 0.00 0.00 57 1010.6
20260906115503 21 76 0.0 0.0 0.00 0.00 0.00 57 1010.3
20260906115001 21 53 0.0 0.0 0.00 0.00 0.00 49 1010.3
20260906114505 22 53 0.0 0.0 0.00 0.00 0.00 46 1010.3
20260906114002 22 53 0.0 0.0 0.00 0.00 0.00 41 1010.2
20260906113600 22 53 0.0 0.0 0.00 0.00 0.00 43 1010.2
20260906113100 22 53 0.0 0.0 0.00 0.00 0.00 44 1010.2
20260906112600 22 53 0.0 0.0 0.00 0.00 0.00 42 1010.3
20260906112100 22 53 0.0 0.0 0.00 0.00 0.00 37 1010.3
20260906111617 22 53 0.0 0.0 0.00 0.00 0.00 35 1010.3
20260906111059 22 53 0.0 0.0 0.00 0.00 0.00 36 1010.1
20260906110559 22 53 0.0 0.0 0.00 0.00 0.00 38 1010.1
20260906110100 22 53 0.0 0.0 0.00 0.00 0.00 40 1010.1
20260906105559 22 53 0.0 0.0 0.00 0.00 0.00 37 1010.1
20260906105102 22 53 0.0 0.0 0.00 0.00 0.00 38 1010.1
20260906104558 22 53 0.0 0.0 0.00 0.00 0.00 37 1010.1
20260906104057 22 53 0.0 0.0 0.00 0.00 0.00 38 1010.2
20260906103558 22 53 0.0 0.0 0.00 0.00 0.00 39 1010.2
20260906103057 22 53 0.0 0.0 0.00 0.00 0.00 39 1010.2
20260906102558 22 53 0.0 0.0 0.00 0.00 0.00 37 1010.2
20260906102057 22 53 0.0 0.0 0.00 0.00 0.00 38 1010.2
20260906101557 22 53 0.0 0.0 0.00 0.00 0.00 38 1010.2
20260906101056 22 53 0.0 0.0 0.00 0.00 0.00 41 1010.3
20260906100556 22 53 0.0 0.0 0.00 0.00 0.00 38 1010.3
20260906095556 22 53 0.0 0.0 0.00 0.00 0.00 38 1010.3
20260906095056 22 53 0.0 0.0 0.00 0.00 0.00 36 1010.3
20260906094559 22 53 0.0 0.0 0.00 0.00 0.00 37 1010.3
20260906094055 22 53 0.0 0.0 0.00 0.00 0.00 37 1010.3
20260906093555 22 53 0.0 0.0 0.00 0.00 0.00 37 1010.3
20260906093055 22 53 0.0 0.0 0.00 0.00 0.00 37 1010.3
20260906092556 22 53 0.0 0.0 0.00 0.00 0.00 39 1010.4
20260906092055 22 53 0.0 0.0 0.00 0.00 0.00 39 1010.4
20260906091553 22 53 0.0 0.0 0.00 0.00 0.00 37 1010.4
20260906091054 22 53 0.0 0.0 0.00 0.00 0.00 37 1010.3
20260906090553 22 53 0.0 0.0 0.00 0.00 0.00 38 1010.3
20260906090056 22 53 0.0 0.0 0.00 0.00 0.00 38 1010.3
20260906085554 21 53 0.0 0.0 0.00 0.00 0.00 38 1010.3
20260906085053 21 53 0.0 0.0 0.00 0.00 0.00 37 1010.3
20260906084557 21 53 0.0 0.0 0.00 0.00 0.00 38 1010.3
20260906084053 21 53 0.0 0.0 0.00 0.00 0.00 40 1010.4
20260906083552 21 53 0.0 0.0 0.00 0.00 0.00 37 1010.4
20260906083051 21 53 0.0 0.0 0.00 0.00 0.00 38 1010.4
20260906082550 21 53 0.0 0.0 0.00 0.00 0.00 38 1010.5
20260906082050 21 53 0.0 0.0 0.00 0.00 0.00 38 1010.5
20260906081550 21 53 0.0 0.0 0.00 0.00 0.00 37 1010.5
20260906081049 22 53 0.0 0.0 0.00 0.00 0.00 39 1010.7
20260906080550 22 53 0.0 0.0 0.00 0.00 0.00 38 1010.7
20260906080055 22 53 0.0 0.0 0.00 0.00 0.00 37 1010.7
20260906075553 22 53 0.0 0.0 0.00 0.00 0.00 37 1010.6
20260906075049 21 53 0.0 0.0 0.00 0.00 0.00 36 1010.6
20260906074551 21 53 0.0 0.0 0.00 0.00 0.00 36 1010.6
20260906074047 22 53 0.0 0.0 0.00 0.00 0.00 35 1010.8
20260906073547 22 53 0.0 0.0 0.00 0.00 0.00 37 1010.8
20260906073048 22 53 0.0 0.0 0.00 0.00 0.00 36 1010.8
20260906072546 22 53 0.0 0.0 0.00 0.00 0.00 36 1010.8
20260906072046 22 53 0.0 0.0 0.00 0.00 0.00 38 1010.8
20260906071546 22 53 0.0 0.0 0.00 0.00 0.00 37 1010.8
20260906071045 22 53 0.0 0.0 0.00 0.00 0.00 37 1010.6
20260906070547 22 53 0.0 0.0 0.00 0.00 0.00 36 1010.6
20260906070043 22 53 0.0 0.0 0.00 0.00 0.03 36 1010.6
20260906065544 22 53 0.0 0.0 0.00 0.00 0.03 36 1010.5
20260906065043 22 53 0.0 0.0 0.00 0.00 0.03 37 1010.5
20260906064542 22 53 1.6 0.0 0.00 0.00 0.03 37 1010.5
20260906064043 22 53 3.2 0.0 0.00 0.00 0.03 37 1010.4
20260906063546 22 53 3.2 0.0 0.00 0.00 0.03 37 1010.4
20260906063045 22 53 3.2 0.0 0.00 0.00 0.03 37 1010.4
20260906062541 22 49 1.6 0.0 0.00 0.00 0.03 36 1010.4
20260906062041 22 273 0.0 0.0 0.00 0.00 0.03 36 1010.4
20260906061541 22 273 1.6 0.0 0.00 0.00 0.03 37 1010.4
20260906061040 22 282 3.2 0.0 0.00 0.00 0.03 37 1010.6
20260906060541 23 279 3.2 0.0 0.00 0.00 0.03 37 1010.6
20260906060041 22 258 3.2 0.0 0.00 0.00 0.03 36 1010.6
20260906055541 22 266 4.8 0.0 0.00 0.00 0.03 37 1010.6
20260906055040 22 274 4.8 0.0 0.00 0.00 0.03 37 1010.6
20260906054558 22 279 3.2 0.0 0.00 0.00 0.03 37 1010.6
20260906054040 22 272 3.2 0.0 0.00 0.00 0.03 37 1010.9
20260906053538 22 305 4.8 0.0 0.00 0.00 0.03 37 1010.9
20260906053039 22 292 4.8 0.0 0.00 0.00 0.03 38 1010.9
20260906052539 22 296 4.8 0.0 0.00 0.00 0.03 39 1011.0
20260906052039 22 267 4.8 0.0 0.00 0.00 0.03 39 1011.0
20260906051538 22 242 4.8 0.0 0.00 0.00 0.03 39 1011.0
20260906051039 22 262 4.8 0.0 0.00 0.00 0.03 39 1011.2
20260906050541 22 279 4.8 0.0 0.00 0.00 0.03 39 1011.2
20260906050040 22 246 4.8 0.0 0.00 0.00 0.03 40 1011.2
20260906045539 22 248 3.2 0.0 0.00 0.00 0.03 40 1011.2
20260906045038 22 262 3.2 0.0 0.00 0.00 0.03 40 1011.2
20260906044538 21 266 3.2 0.0 0.00 0.00 0.03 40 1011.2
20260906044039 21 294 3.2 0.0 0.00 0.00 0.03 40 1011.2
20260906043537 21 273 3.2 0.0 0.00 0.00 0.03 41 1011.2
20260906043037 21 281 3.2 0.0 0.00 0.00 0.03 41 1011.2
20260906042537 21 290 3.2 0.0 0.00 0.00 0.03 42 1011.1
20260906042037 21 277 3.2 0.0 0.00 0.00 0.03 42 1011.1
20260906041536 21 304 3.2 0.0 0.00 0.00 0.03 42 1011.1
20260906041038 21 270 3.2 0.0 0.00 0.00 0.03 42 1010.9
20260906040537 21 286 3.2 0.0 0.00 0.00 0.03 44 1010.9
20260906040045 22 277 1.6 0.0 0.00 0.00 0.03 43 1010.9
20260906035537 22 276 1.6 0.0 0.00 0.00 0.03 41 1010.8
20260906035036 22 277 1.6 0.0 0.00 0.00 0.03 40 1010.8
20260906034547 22 274 1.6 0.0 0.00 0.00 0.03 39 1010.8
20260906034035 22 260 1.6 0.0 0.00 0.00 0.03 38 1010.8
20260906033535 22 266 1.6 0.0 0.00 0.00 0.03 39 1010.8
20260906033035 22 301 1.6 0.0 0.00 0.00 0.03 39 1010.8
20260906032537 22 269 0.0 0.0 0.00 0.00 0.03 38 1010.7
20260906032035 22 295 0.0 0.0 0.00 0.00 0.03 39 1010.7
20260906031601 22 295 0.0 0.0 0.00 0.00 0.03 39 1010.7
20260906031039 22 295 1.6 0.0 0.00 0.00 0.03 39 1010.7
20260906030535 22 278 1.6 0.0 0.00 0.00 0.03 38 1010.7
20260906030035 22 297 1.6 0.0 0.00 0.00 0.03 38 1010.7
20260906025534 22 250 1.6 0.0 0.00 0.00 0.03 39 1010.5
20260906025034 22 270 1.6 0.0 0.00 0.00 0.03 40 1010.5
20260906024553 22 277 3.2 0.0 0.00 0.00 0.03 41 1010.5
20260906024035 22 297 3.2 0.0 0.00 0.00 0.03 43 1010.6
20260906023532 22 236 4.8 0.0 0.00 0.00 0.03 44 1010.6
20260906023036 22 234 4.8 0.0 0.00 0.00 0.03 44 1010.6
20260906022531 22 278 4.8 0.0 0.00 0.00 0.03 46 1010.7
20260906022031 22 291 3.2 0.0 0.00 0.00 0.03 48 1010.7
20260906021531 22 255 3.2 0.0 0.00 0.00 0.03 54 1010.7
20260906021029 22 237 3.2 0.0 0.00 0.00 0.03 55 1010.9
20260906020534 22 260 1.6 0.0 0.00 0.00 0.03 56 1010.9
20260906020029 22 274 1.6 0.0 0.00 0.00 0.03 59 1010.9
20260906015530 22 202 3.2 0.0 0.00 0.00 0.03 62 1010.8
20260906015029 22 184 3.2 0.0 0.00 0.00 0.03 63 1010.8
20260906014529 22 226 3.2 0.0 0.00 0.00 0.03 64 1010.8
20260906014029 22 201 3.2 0.0 0.00 0.00 0.03 66 1010.8
20260906013528 22 199 3.2 0.0 0.00 0.00 0.03 64 1010.8
20260906013028 22 205 4.8 0.0 0.00 0.00 0.03 63 1010.8
20260906012528 23 207 4.8 0.0 0.00 0.00 0.03 67 1010.6
20260906012028 23 238 4.8 0.0 0.00 0.00 0.03 65 1010.6
20260906011529 24 259 3.2 0.0 0.00 0.00 0.03 61 1010.6
20260906011028 24 209 1.6 0.0 0.00 0.00 0.03 58 1010.5
20260906010529 24 187 1.6 0.0 0.00 0.00 0.03 56 1010.5
20260906010043 23 294 3.2 0.0 0.00 0.00 0.03 59 1010.5
20260906005527 23 260 3.2 0.0 0.00 0.00 0.03 64 1010.7
20260906005028 23 215 3.2 0.0 0.00 0.00 0.03 66 1010.7
20260906004526 24 235 3.2 0.0 0.00 0.00 0.03 65 1010.7
20260906004026 24 178 3.2 0.0 0.00 0.00 0.03 66 1010.6
20260906003527 24 213 1.6 0.0 0.00 0.00 0.03 66 1010.6
20260906003027 24 194 3.2 0.0 0.00 0.00 0.03 63 1010.6
20260906002527 25 148 3.2 0.0 0.00 0.00 0.03 63 1010.5
20260906002026 25 173 3.2 0.0 0.00 0.00 0.03 64 1010.5
20260906001533 25 167 3.2 0.0 0.00 0.00 0.03 62 1010.5
20260906001026 25 179 3.2 0.0 0.00 0.00 0.03 60 1010.5
20260906000526 25 166 3.2 0.0 0.00 0.00 0.03 58 1010.5
20260906000026 25 172 3.2 0.0 0.00 0.00 0.03 57 1010.5
20260905235526 25 170 3.2 0.0 0.00 0.00 0.03 55 1010.6
20260905235028 25 215 3.2 0.0 0.00 0.00 0.03 58 1010.6
20260905234525 26 154 4.8 0.0 0.00 0.00 0.03 56 1010.6
20260905234025 26 205 4.8 0.0 0.00 0.00 0.03 52 1010.7
20260905233525 25 170 4.8 0.0 0.00 0.00 0.03 53 1010.7
20260905233025 25 181 4.8 0.0 0.00 0.00 0.03 51 1010.7
20260905232525 25 207 4.8 0.0 0.00 0.00 0.03 54 1010.5
20260905232025 26 183 4.8 0.0 0.00 0.00 0.03 55 1010.5
20260905231525 26 173 3.2 0.0 0.00 0.00 0.03 53 1010.5
20260905231025 26 141 3.2 0.0 0.00 0.00 0.03 52 1010.6
20260905230524 26 186 3.2 0.0 0.00 0.00 0.03 50 1010.6
20260905230031 26 176 3.2 0.0 0.00 0.00 0.03 53 1010.6
20260905225526 26 169 3.2 0.0 0.00 0.00 0.03 51 1010.7
20260905225023 26 144 3.2 0.0 0.00 0.00 0.03 57 1010.7
20260905224523 26 148 4.8 0.0 0.00 0.00 0.03 51 1010.7
20260905224022 27 182 3.2 0.0 0.00 0.00 0.03 51 1010.9
20260905223522 26 169 3.2 0.0 0.00 0.00 0.03 50 1010.9
20260905223021 26 206 3.2 0.0 0.00 0.00 0.03 49 1010.9
20260905222522 26 170 3.2 0.0 0.00 0.00 0.03 51 1011.1
20260905222021 26 195 3.2 0.0 0.00 0.00 0.03 51 1011.1
20260905221520 26 152 3.2 0.0 0.00 0.00 0.03 49 1011.1
20260905221021 26 169 3.2 0.0 0.00 0.00 0.03 58 1011.1
20260905220520 26 174 4.8 0.0 0.00 0.00 0.03 56 1011.1
20260905220023 26 182 4.8 0.0 0.00 0.00 0.03 55 1011.1
20260905215520 26 170 4.8 0.0 0.00 0.00 0.03 61 1011.1
20260905215020 26 155 4.8 0.0 0.00 0.00 0.03 61 1011.1
20260905214519 26 360 3.2 0.0 0.00 0.00 0.03 49 1011.1
20260905214018 26 212 3.2 0.0 0.00 0.00 0.03 55 1011.4
20260905213517 26 201 4.8 0.0 0.00 0.00 0.03 61 1011.4
20260905213016 26 206 4.8 0.0 0.00 0.00 0.03 59 1011.4
20260905212515 26 133 4.8 0.0 0.00 0.00 0.03 61 1011.5
20260905212013 25 172 4.8 0.0 0.00 0.00 0.03 60 1011.5
20260905211539 25 157 4.8 0.0 0.00 0.00 0.03 60 1011.5
20260905211014 25 206 4.8 0.0 0.00 0.00 0.03 61 1011.6
20260905210514 25 161 4.8 0.0 0.00 0.00 0.03 64 1011.6
20260905210013 25 177 3.2 0.0 0.00 0.00 0.03 66 1011.6
20260905205513 25 211 3.2 0.0 0.00 0.00 0.03 65 1011.7
20260905205013 25 143 3.2 0.0 0.00 0.00 0.03 67 1011.7
20260905204512 25 169 4.8 0.0 0.00 0.00 0.03 69 1011.7
20260905204015 25 176 4.8 0.0 0.00 0.00 0.03 70 1011.7
20260905203511 25 153 4.8 0.0 0.00 0.00 0.03 70 1011.7
20260905203011 25 165 3.2 0.0 0.00 0.00 0.03 68 1011.7
20260905202510 25 157 3.2 0.0 0.00 0.00 0.03 67 1011.8
20260905202009 25 107 3.2 0.0 0.00 0.00 0.03 69 1011.8
20260905201509 24 238 4.8 0.0 0.00 0.00 0.03 70 1011.8
20260905201008 23 166 3.2 0.0 0.00 0.00 0.03 72 1012.3
20260905200510 23 229 3.2 0.0 0.00 0.00 0.03 69 1012.3
20260905200009 23 206 4.8 0.0 0.00 0.00 0.03 74 1012.3
20260905195507 23 211 4.8 0.0 0.00 0.00 0.03 76 1012.4
20260905195009 23 219 4.8 0.0 0.00 0.00 0.03 76 1012.4
20260905194507 23 167 3.2 0.0 0.00 0.00 0.03 76 1012.4
20260905194007 23 155 3.2 0.0 0.00 0.00 0.03 77 1012.6
20260905193506 23 210 4.8 0.0 0.00 0.00 0.03 75 1012.6
20260905193006 23 194 4.8 0.0 0.00 0.00 0.03 73 1012.6
20260905192506 24 175 4.8 0.0 0.00 0.00 0.03 74 1012.5
20260905192006 24 200 4.8 0.0 0.00 0.00 0.03 73 1012.5
20260905191507 25 149 3.2 0.0 0.00 0.00 0.03 72 1012.5
20260905191006 25 158 3.2 0.0 0.00 0.00 0.03 71 1012.6
20260905190505 25 158 3.2 0.0 0.00 0.00 0.03 72 1012.6
20260905190006 25 168 3.2 0.0 0.00 0.00 0.03 70 1012.6
20260905185505 25 194 3.2 0.0 0.00 0.00 0.03 72 1012.8
20260905185005 25 157 3.2 0.0 0.00 0.00 0.03 69 1012.8
20260905184502 25 116 1.6 0.0 0.00 0.00 0.03 70 1012.8
20260905184002 23 136 1.6 0.0 0.00 0.00 0.03 61 1012.8
20260905183600 23 360 1.6 0.0 0.00 0.00 0.03 77 1012.8
20260905183059 23 186 1.6 0.0 0.00 0.00 0.03 78 1012.8
20260905182558 23 139 3.2 0.0 0.00 0.00 0.03 79 1012.9
20260905182057 23 190 3.2 0.0 0.00 0.00 0.03 79 1012.9
20260905181557 23 215 3.2 0.0 0.00 0.00 0.03 79 1012.9
20260905181056 23 192 3.2 0.0 0.00 0.00 0.03 79 1012.9
20260905180557 23 157 3.2 0.0 0.00 0.00 0.03 78 1012.9
20260905180103 23 197 3.2 0.0 0.00 0.00 0.03 79 1012.9
20260905175559 23 157 3.2 0.0 0.00 0.00 0.03 78 1012.9
20260905175055 23 159 3.2 0.0 0.00 0.00 0.03 79 1012.9
20260905174555 22 207 3.2 0.0 0.00 0.00 0.03 78 1012.9
20260905174054 22 187 3.2 0.0 0.00 0.00 0.03 81 1012.7
20260905173551 22 127 1.6 0.0 0.00 0.00 0.03 80 1012.7
20260905173100 22 176 1.6 0.0 0.00 0.00 0.03 81 1012.7
20260905172550 22 223 3.2 0.0 0.00 0.00 0.03 81 1012.7
20260905172050 21 190 3.2 0.0 0.00 0.00 0.03 82 1012.7
20260905171547 21 144 1.6 0.0 0.00 0.00 0.03 81 1012.7
20260905171046 21 217 1.6 0.0 0.00 0.00 0.03 83 1012.9
20260905170546 21 163 3.2 0.0 0.00 0.00 0.03 83 1012.9
20260905170045 21 155 3.2 0.0 0.00 0.00 0.03 83 1012.9
20260905165544 21 153 3.2 0.0 0.00 0.00 0.03 83 1012.8
20260905165045 21 181 1.6 0.0 0.00 0.00 0.03 85 1012.8
20260905164543 21 188 1.6 0.0 0.00 0.00 0.03 85 1012.8
20260905164040 21 161 1.6 0.0 0.00 0.00 0.03 86 1012.6
20260905163540 20 146 1.6 0.0 0.00 0.00 0.03 86 1012.6
20260905163040 20 198 1.6 0.0 0.00 0.00 0.03 87 1012.6
20260905162540 20 168 1.6 0.0 0.00 0.00 0.03 87 1012.5
20260905162038 20 159 1.6 0.0 0.00 0.00 0.03 88 1012.5
20260905161537 20 188 1.6 0.0 0.00 0.00 0.03 89 1012.5
20260905161036 20 127 1.6 0.0 0.00 0.00 0.03 89 1012.5
20260905160534 20 150 0.0 0.0 0.00 0.00 0.03 90 1012.5
20260905160035 19 186 0.0 0.0 0.00 0.00 0.03 91 1012.5
20260905155533 19 186 0.0 0.0 0.00 0.00 0.03 92 1012.6
20260905155032 18 194 1.6 0.0 0.00 0.00 0.03 92 1012.6
20260905154534 18 107 1.6 0.0 0.00 0.00 0.03 92 1012.6
20260905154032 18 44 1.6 0.0 0.00 0.00 0.03 93 1012.5
20260905153527 18 78 3.2 0.0 0.00 0.00 0.03 94 1012.5
20260905153026 17 86 3.2 0.0 0.00 0.00 0.03 95 1012.5
20260905152525 17 355 4.8 0.0 0.00 0.00 0.03 96 1012.2
20260905152027 17 46 4.8 0.0 0.00 0.00 0.03 96 1012.2
20260905151523 17 11 4.8 0.0 0.00 0.00 0.03 97 1012.2
20260905151023 17 355 3.2 0.0 0.00 0.00 0.03 97 1012.2
20260905150521 17 20 4.8 0.0 0.00 0.00 0.03 97 1012.2
20260905150021 16 20 4.8 0.0 0.00 0.00 0.03 97 1012.2
20260905145522 16 14 3.2 0.0 0.00 0.00 0.03 97 1012.3
20260905145020 16 12 3.2 0.0 0.00 0.00 0.03 97 1012.3
20260905144519 16 5 1.6 0.0 0.00 0.00 0.03 97 1012.3
20260905144018 16 71 0.0 0.0 0.00 0.00 0.03 97 1012.3
20260905143519 16 72 0.0 0.0 0.00 0.00 0.03 97 1012.3
20260905143022 16 72 0.0 0.0 0.00 0.00 0.03 97 1012.3
20260905142518 15 72 0.0 0.0 0.00 0.00 0.03 97 1012.2
20260905142021 15 71 0.0 0.0 0.00 0.00 0.03 97 1012.2
20260905141525 15 71 0.0 0.0 0.00 0.00 0.03 97 1012.2
20260905141021 15 71 0.0 0.0 0.00 0.00 0.03 97 1011.9
20260905140520 15 72 0.0 0.0 0.00 0.00 0.03 97 1011.9
20260905140018 15 72 0.0 0.0 0.00 0.00 0.03 97 1011.9
20260905135517 15 71 0.0 0.0 0.00 0.00 0.03 97 1011.7
20260905135017 15 71 0.0 0.0 0.00 0.00 0.03 97 1011.7
20260905134517 15 72 0.0 0.0 0.00 0.00 0.03 97 1011.7
20260905134019 15 72 0.0 0.0 0.00 0.00 0.03 97 1011.5